Simultaneous Nadir Overpasses (SNOs) Predictions

Prediction of SNOs between METOP-B and NOAA-19 Satellite Orbit:

Table of predicted SNOs for the next 14.0 days since TLE Epoch: 10/18/2019
Index Date (METOP-B) Time (METOP-B) Lat,Lon (METOP-B) SZA (METOP-B ) Date (NOAA-19) Time (NOAA-19) Lat,Lon (NOAA-19) SZA (NOAA-19 ) Distance(km) Time Diff (sec)
1 10/23/2019 03:49:48 79.59, 141.16 91.59 10/23/2019 03:48:35 79.56, 141.08 91.54 3.23 73
2 10/23/2019 04:40:30 -79.58, -51.61 88.42 10/23/2019 04:39:40 -79.57, -51.73 88.45 2.65 50
3 10/23/2019 05:31:11 79.54, 115.44 91.55 10/23/2019 05:30:36 79.57, 115.51 91.57 3.22 35
4 10/23/2019 06:21:52 -79.57, -77.05 88.42 10/23/2019 06:21:40 -79.55, -77.02 88.43 2.17 12
5 10/23/2019 07:12:32 79.57, 90.28 91.60 10/23/2019 07:12:36 79.55, 90.22 91.59 2.01 4
6 10/23/2019 08:03:14 -79.55,-102.49 88.41 10/23/2019 08:03:41 -79.55,-102.59 88.41 1.98 27
7 10/23/2019 08:53:54 79.55, 64.83 91.61 10/23/2019 08:54:36 79.53, 64.93 91.61 3.26 42
8 10/23/2019 09:44:36 -79.54,-127.94 88.40 10/23/2019 09:45:41 -79.53,-127.88 88.39 1.45 65




NCC Satellite Simultaneous Nadir Overpasses (SNOs) Prediction Service
